Terug naar catalogus

KUIPER-00136

ActiefCommunicatieLEO
NORAD 65962·PAYLOAD·🇺🇸 United States

Gelanceerd Oct 14, 2025 vanaf Cape Canaveral Space Force Station

Loading…

Volgende Passages (komende 24 uur)

TLE

VersSource: CelesTrak SupGP

Epoch: Sep 14, 2026, 21:46 UTC

1 65962C 25228R   26257.90736111  .00000580  00000+0  75841-4 0  2575
2 65962  51.8994 231.4330 0000865  45.6642 207.5588 14.79943549    19

Volg KUIPER-00136 in realtime met AllMySat

Download on the App Store